Simultaneous Nadir Overpasses (SNOs) Predictions

Prediction of SNOs between METOP-B and TERRA Satellite Orbit:

Table of predicted SNOs for the next 14.0 days since TLE Epoch: 3/12/2022
Index Date (METOP-B) Time (METOP-B) Lat,Lon (METOP-B) SZA (METOP-B ) Date (TERRA) Time (TERRA) Lat,Lon (TERRA) SZA (TERRA ) Distance(km) Time Diff (sec)
1 03/13/2022 11:34:10 81.24, 49.29 86.13 03/13/2022 11:35:20 81.25, 49.32 86.16 0.96 70
2 03/13/2022 12:24:51 -81.25,-143.34 93.89 03/13/2022 12:24:47 -81.24,-143.15 93.87 3.19 4
3 03/16/2022 07:08:32 81.23, 115.29 84.99 03/16/2022 07:09:31 81.23, 115.49 85.03 3.27 59
4 03/16/2022 07:59:11 -81.25, -76.55 94.93 03/16/2022 07:58:57 -81.25, -76.59 94.94 0.68 14
5 03/19/2022 02:42:51 81.24,-177.96 83.94 03/19/2022 02:43:40 81.23,-178.08 83.94 2.24 49
6 03/19/2022 03:33:31 -81.25, -10.19 96.02 03/19/2022 03:33:06 -81.25, -10.13 96.03 1.01 25
7 03/21/2022 22:17:11 81.25,-111.26 82.89 03/21/2022 22:17:49 81.25,-111.39 82.89 2.15 38
8 03/21/2022 23:07:52 -81.25, 56.13 97.12 03/21/2022 23:07:16 -81.25, 56.22 97.13 1.55 36
9 03/24/2022 17:51:33 81.24, -45.36 81.75 03/24/2022 17:51:59 81.24, -45.17 81.78 3.33 26



Historial Predications of SNOs between METOP-B and TERRA
